Regional Weather Roundup
Issued by NWS State College, PA

Home | Current Version | Previous Version | Text Only | Print | Product List | Glossary Off
Versions: 1 2 3 4 5 6 7 8 9 10 11 12 13 14 15 16 17 18 19 20 21 22 23 24 25 26 27 28 29 30 31 32 33 34 35 36 37 38 39 40 41 42 43 44 45 46 47 48 49 50

439
ASUS41 KCTP 011403
RWRCTP

REGIONAL WEATHER ROUNDUP
NATIONAL WEATHER SERVICE STATE COLLEGE PA
900 AM EST WED MAR 01 2017

Note: "fair" indicates few or no clouds below 12,000 feet with no
significant weather and/or obstructions to visibility.

* = STATION THAT DOES NOT REPORT PRECIPITATION /E.G. RAIN...SNOW...ETC/
    THUNDER OR FOG.

PAZ002>004-007>009-013>016-020>023-029>032-011500-
WESTERN PENNSYLVANIA

CITY           SKY/WX    TMP DP  RH WIND       PRES   REMARKS
ERIE           LGT RAIN  54  50  86 S20       29.41F
MEADVILLE      LGT RAIN  51  49  92 VRB7      29.50F
FRANKLIN*      CLOUDY    50  46  87 SW7       29.56F
NEW CASTLE     CLOUDY    53  51  93 CALM      29.55F
BEAVER COUNTY  LGT RAIN  52  50  93 CALM      29.57F
BUTLER*        CLOUDY    54  48  82 CALM      29.60F
PITTSBURGH INT LGT RAIN  55  52  89 N8        29.58F
PITTSBURGH     LGT RAIN  57  53  86 NW13G30   29.58R FOG
INDIANA*       CLOUDY    57  55  94 W12G21    29.62R
LATROBE        LGT RAIN  59  57  94 SW17G29   29.59F
WASHINGTON CO* CLOUDY    54  50  87 W9        29.65R
$$

PAZ004>006-010>012-017>019-024>028-033>037-041-042-045-046-049>053-011500-
CENTRAL PENNSYLVANIA

CITY           SKY/WX    TMP DP  RH WIND       PRES   REMARKS
BRADFORD       LGT RAIN  52  50  93 W14G25    29.54S
DUBOIS         CLOUDY    57  51  80 SW16G24   29.57S
CLEARFIELD       N/A    N/A N/A N/A MISG      29.58R
JOHNSTOWN      RAIN      55  53  93 SW14G24   29.62F FOG
ALTOONA        LGT RAIN  57  55  93 S10       29.66F
STATE COLLEGE  PTSUNNY   55  52  88 SW14      29.60F
WILLIAMSPORT   LGT RAIN  57  52  83 S20G29    29.57F
SELINSGROVE    LGT RAIN  53  52  96 S6        29.69F FOG
FT INDIANTOWN  RAIN      53  53 100 CALM      29.71F VSB 1
CAPITAL CITY   LGT RAIN  56  53  90 N7        29.72R FOG
HARRISBURG     LGT RAIN  57  55  93 VRB3      29.70F
YORK           CLOUDY    58  56  93 S3        29.70F
$$

PAZ038>040-043-044-047-048-054-055-060>062-067>071-011500-
EASTERN PENNSYLVANIA

CITY           SKY/WX    TMP DP  RH WIND       PRES   REMARKS
SCRANTON       HVY RAIN  56  55  97 S8        29.67F FOG
MOUNT POCONO   RAIN      51  51 100 W12G20    29.72F FOG
ALLENTOWN      TSTM      58  54  86 VRB5      29.70F FOG
QUAKERTOWN*    CLOUDY    55  55 100 S7        29.70F
READING        LGT RAIN  57  57 100 CALM      29.71F FOG
LANCASTER      LGT RAIN  58  57  97 S3        29.70F FOG
COATESVILLE    LGT RAIN  55  55 100 S8G17     29.75F
POTTSTOWN      CLOUDY    57  55  93 S6        29.73F
BLUE BELL      CLOUDY    57  55  94 S8        29.73F
DOYLESTOWN     LGT RAIN  58  56  93 VRB6      29.71F
WILLOW GROVE   NOT AVBL
NORTH PHILA    CLOUDY    60  57  89 S8G22     29.75F
PHILADELPHIA   CLOUDY    59  56  89 S8        29.75F
$$




USA.gov is the U.S. government's official web portal to all federal, state and local government web resources and services.